COMPLETED DISPATCHED CALLS FOR SERVICE

Welcome to the Jacksonville Sheriff’s Office Completed Dispatched Calls for Service webpage. This page displays calls for service made to the Jacksonville Sheriff's Office that have recently been completed. The data on this page is refreshed automatically.

This information is not intended to be used as official crime data. This program does not provide information about all crimes, and excludes specific incidents such as sexual assaults and child abuse.

Disclaimer: The Jacksonville Sheriff's Office makes every effort to produce and publish current and accurate information. No warranties, expressed or implied, are provided for the data herein, its use, or its interpretation. The services provided are for informational purposes only and should not be relied on for any type of legal action.

Last refreshed 6/25 02:33:08

Incident # Dispatched Block Address Signal Call Description  
202100378177 6-25 01:09 THE WOODS PARK DR / HODGES BLVD 91 TRAFFIC LIGHT/RR CROSSING MALFUNCTION
202100378377 6-24 20:58 PHILIPS HWY / SOUTHGATE DR 1050 TRAFFIC STOP
202100378363 6-24 20:52 2100 WILEY OAKS LN 76 ASSIST OTHER AGENCY
202100378358 6-24 20:48 OLD ENGLISH DR / CAPRICE DR 1050 TRAFFIC STOP
202100378357 6-24 20:48 MAIN ST N / 30TH ST W 1050 TRAFFIC STOP
202100378355 6-24 20:46 103RD ST / SHINDLER DR 1050 TRAFFIC STOP
202100378354 6-24 20:46 NORMANDY BLVD / HAMMOND BLVD 1050 TRAFFIC STOP
202100378353 6-24 20:45 100 BUCKMAN BRG N 1050 TRAFFIC STOP
202100378348 6-24 20:44 12800 MAIN ST N 1050 TRAFFIC STOP
202100378347 6-24 20:43 BELFORT RD / TOUCHTON RD 1050 TRAFFIC STOP
202100378342 6-24 20:40 I95 N OFF RAMP / MAX LEGGETT PKWY 1050 TRAFFIC STOP
202100378340 6-24 20:38 HOGAN RD / GRANT OWENS RD 1050 TRAFFIC STOP
202100378326 6-24 20:36 10400 PHILIPS HWY 63 DISPUTE
202100378318 6-24 20:35 1600 DERITO DR 13 SUSPICIOUS PERSON
202100378336 6-24 20:34 103RD ST / OLD MIDDLEBURG RD S 1050 TRAFFIC STOP
202100378327 6-24 20:30 36TH ST W / FLYNN AVE 1050 TRAFFIC STOP
202100378302 6-24 20:24 I295 S ON RAMP / ZOO PKWY 16 ROAD OBSTRUCTION
202100378321 6-24 20:24 SPIRES AVE / 19TH ST W 13 SUSPICIOUS PERSON
202100378297 6-24 20:21 ARLINGTON EXPY / EB ARLXY NB SSCON RP 4 53 TRAFFIC CRASH PERSON INJURED
202100378312 6-24 20:21 2200 2ND ST W 63 DISPUTE
202100378314 6-24 20:20 PHOENIX AVE / 13TH ST E 13 SUSPICIOUS PERSON
202100378308 6-24 20:19 MAIN ST N / BAISDEN RD 1050 TRAFFIC STOP
202100378304 6-24 20:17 11800 CAMDEN RD 4 AUTO CRASH
202100378305 6-24 20:15 9300 103RD ST 1050 TRAFFIC STOP
202100378299 6-24 20:11 2200 BEACH BLVD 1050 TRAFFIC STOP
202100378273 6-24 20:10 5900 FIRESTONE RD 37 UNVERIFIED 911 CALL
202100378236 6-24 20:08 4400 SOUTHSIDE BLVD 63 DISPUTE
202100378169 6-24 20:07 I295 S ON RAMP / PHILIPS HWY 4 53 TRAFFIC CRASH PERSON INJURED
202100378258 6-24 19:59 11400 SAN JOSE BLVD 9 THEFT
202100378034 6-24 19:58 I295 S ON RAMP / 103RD ST 4 AUTO CRASH
202100378269 6-24 19:58 103RD ST / LAMBING RD 16 ROAD OBSTRUCTION
202100378280 6-24 19:54 1600 31ST ST W 13 SUSPICIOUS PERSON
202100378278 6-24 19:54 4400 CAMPUS HILLS CIR 1066 CANCEL
202100378271 6-24 19:50 11000 OLD ST AUGUSTINE RD 64 NOISE COMPLAINT
202100378277 6-24 19:50 DYAL ST / HAINES ST 1050 TRAFFIC STOP
202100378232 6-24 19:46 8800 HARVARDS COVE CT 11 ABANDONED VEHICLE
202100378222 6-24 19:46 6600 OAKWOOD ST 2288 DOMESTIC DISPUTE WITH/ASSAULT
202100377981 6-24 19:46 I95 S OFF RAMP / GOLFAIR BLVD 4 AUTO CRASH
202100378270 6-24 19:45 9100 JENNIFER BLVD 56 JUVENILE COMPLAINT
202100378197 6-24 19:45 400 LANE AVE S 9 THEFT
202100378268 6-24 19:44 600 COMMERCE CENTER DR 96 ASSIST MOTORIST
202100378153 6-24 19:44 4400 CONFEDERATE POINT RD 1066 CANCEL
202100378265 6-24 19:42 UNIVERSITY BLVD S / ATLANTIC BLVD 12 RECKLESS DRIVER
202100378264 6-24 19:42 1500 31ST ST W 90 FIREWORKS
202100378237 6-24 19:41 800 POST ST 73 DRUG INVESTIGATION
202100378262 6-24 19:40 10TH ST W / MYRTLE AVE N 13 SUSPICIOUS PERSON
202100378259 6-24 19:39 OLD ST AUGUSTINE RD / I295 N OFF RAMP 96 ASSIST MOTORIST
202100378256 6-24 19:39 SAN PABLO RD S / BEACH BLVD 1066 CANCEL
202100378225 6-24 19:39 4400 PRINCESS LABETH CT W 73 DRUG INVESTIGATION
202100378213 6-24 19:39 10100 BEAM ST 6388 DISPUTE WITH ASSAULT
202100378178 6-24 19:37 1400 26TH ST W 63 DISPUTE
202100378253 6-24 19:36 12900 BROXTON BAY DR 22 DOMESTIC
202100378245 6-24 19:36 1400 7TH ST W 63 DISPUTE
202100378117 6-24 19:35 8800 HARVARDS COVE CT 11 ABANDONED VEHICLE
202100378252 6-24 19:35 10500 RUTGERS RD 13 SUSPICIOUS PERSON
202100378247 6-24 19:33 8200 DIX ELLIS TRL 76 ASSIST OTHER AGENCY
202100378244 6-24 19:32 BELFORT RD / HOGAN RD 91 TRAFFIC LIGHT/RR CROSSING MALFUNCTION
202100378242 6-24 19:30 EASTPORT RD / PULASKI RD 96 ASSIST MOTORIST
202100378235 6-24 19:29 PRUDENTIAL DR / MAIN ST S 4 AUTO CRASH
202100378205 6-24 19:24 9700 OLD ST AUGUSTINE RD 88 ASSAULT
202100378228 6-24 19:24 12700 ATLANTIC BLVD 63 DISPUTE
202100378181 6-24 19:23 11500 WINGATE RD N 88 ASSAULT
202100378199 6-24 19:21 5400 SPRINGFIELD BLVD 63 DISPUTE
202100378134 6-24 19:19 6600 103RD ST 63 DISPUTE
202100378218 6-24 19:17 NORMANDY BLVD / BLAIR RD 4 AUTO CRASH
202100378185 6-24 19:17 8700 BAYMEADOWS RD 22 DOMESTIC
202100377811 6-24 19:17 I10 W OFF RAMP / CASSAT AVE 16 ROAD OBSTRUCTION
202100378162 6-24 19:15 8100 POINT MEADOWS DR 4 AUTO CRASH
202100378221 6-24 19:14 800 BERT RD 33 DISCHARGING OF FIREARM
202100378219 6-24 19:13 1600 DUNN AVE 16 ROAD OBSTRUCTION
202100378155 6-24 19:11 4800 ORTEGA FARMS BLVD 63 DISPUTE
202100377551 6-24 19:11 I10 W OFF RAMP / I295 N ON RAMP 3 HIT AND RUN CRASH
202100378215 6-24 19:11 I95 N OFF RAMP / SOUTHSIDE I95N EXIT RP 96 ASSIST MOTORIST
202100378189 6-24 19:11 8700 SUSIE ST 63 DISPUTE
202182012293 6-24 19:10 SANDPIPER LN / DONNER RD 1050 TRAFFIC STOP
202100378193 6-24 19:10 8800 HARVARDS COVE CT 54 ILLEGALLY PARKED CAR
202100378208 6-24 19:09 103RD ST / DANIELL TER 16 ROAD OBSTRUCTION
202100378204 6-24 19:06 PHILIPS HWY / UNIVERSITY BLVD W 60 SUICIDE OR ATTEMPT
202100378207 6-24 19:04 I295 N WBWY ON RAMP / I95 S OFF RAMP 1050 TRAFFIC STOP
202100378206 6-24 19:04 2200 BURGOYNE DR 22 DOMESTIC
202100378190 6-24 19:04 WILLOW BRANCH AVE / PARK ST 13 SUSPICIOUS PERSON
202100378203 6-24 19:02 33RD ST W / CONNIE ST 1050 TRAFFIC STOP
202100378198 6-24 19:02 7600 EATON AVE 1066 CANCEL
202100378113 6-24 19:01 9500 BAYMEADOWS RD 4 AUTO CRASH
202100378112 6-24 19:00 I295 S OFF RAMP / MERRILL RD 3 HIT AND RUN CRASH
202100378141 6-24 18:59 5100 MARLENE AVE 88J ASSAULT JUST OCCURRED
202100378195 6-24 18:58 MYRTLE AVE N / BEAVER ST W 1050 TRAFFIC STOP
202100378187 6-24 18:57 13700 WOODLAND DR 63 DISPUTE
202100378142 6-24 18:56 6300 SAN JUAN BLVD 2 63 DISPUTE IMPAIRED/INTOXICATED
202100378165 6-24 18:53 PHILIPS HWY / OLD ST AUGUSTINE RD 4 AUTO CRASH
202100378156 6-24 18:53 1800 BARTRAM CIR W 63 DISPUTE
202100378170 6-24 18:52 2700 CHAPMAN OAK DR 22 DOMESTIC
202100378106 6-24 18:51 I295 N OFF RAMP / BEACH BLVD 4 AUTO CRASH
202100378163 6-24 18:51 10100 BAYMEADOWS RD 11 ABANDONED VEHICLE
202100378172 6-24 18:51 4400 MONCRIEF RD 2 63 DISPUTE IMPAIRED/INTOXICATED
202100378151 6-24 18:51 1000 28TH ST W 95ID IDENTITY THEFT
202100378174 6-24 18:50 I295 S ON RAMP / ROOSEVELT BLVD 12 RECKLESS DRIVER
202100378060 6-24 18:48 1100 DUNN AVE 63 DISPUTE
202100378154 6-24 18:44 1300 ORTON ST 27 MENTALLY ILL PERSON
202100378164 6-24 18:43 I295 S OFF RAMP / COMMONWEALTH AVE 4 53 TRAFFIC CRASH PERSON INJURED
202100378166 6-24 18:43 DUVAL STATION RD / STARRATT RD 1050 TRAFFIC STOP
202100378148 6-24 18:43 3000 MONUMENT RD 63 DISPUTE
202100378116 6-24 18:42 3200 DISCOVERY WAY 10 VEHICLE THEFT
202100378157 6-24 18:40 200 HICKORY CREEK BLVD W 11 ABANDONED VEHICLE
202100378150 6-24 18:40 MARTIN LUTHER KING JR PKWY / MYRTLE AVE N 91 TRAFFIC LIGHT/RR CROSSING MALFUNCTION
202100377986 6-24 18:40 ELLIS RD N / 5TH ST W 4 AUTO CRASH
202100378082 6-24 18:37 11200 SAN JOSE BLVD 3 53 HIT AND RUN CRASH W/FIRE
202100378152 6-24 18:35 EDGEWOOD AVE W / AVENUE B 1050 TRAFFIC STOP
202100378131 6-24 18:34 9000 NORFOLK BLVD 95 FRAUD/FORGED (CHECK, ID, RX)
202100378077 6-24 18:32 4400 CAMPUS HILLS CIR 22 DOMESTIC
202100378137 6-24 18:31 1100 EDGEWOOD AVE W 1066 CANCEL
202100377568 6-24 18:30 HOGAN RD / SOUTHSIDE BLVD 91 TRAFFIC LIGHT/RR CROSSING MALFUNCTION
202100377252 6-24 18:30 SAN JUAN AVE / ROOSEVELT BLVD 91 TRAFFIC LIGHT/RR CROSSING MALFUNCTION
202100377031 6-24 18:30 YELLOW BLUFF RD / STARRATT RD 91 TRAFFIC LIGHT/RR CROSSING MALFUNCTION
202100376859 6-24 18:30 MAY ST / POST ST 91 TRAFFIC LIGHT/RR CROSSING MALFUNCTION
202100378133 6-24 18:30 12100 LEM TURNER RD 9P THEFT IN PROGRESS
202100378129 6-24 18:27 4300 PLYMOUTH ST 9 THEFT
202100378136 6-24 18:25 1100 WOODRUFF AVE 63 DISPUTE
202100378118 6-24 18:25 1800 27TH ST E 63 DISPUTE
202100378064 6-24 18:22 3400 DREXEL ST 4 AUTO CRASH
202100378108 6-24 18:21 8500 118TH ST 19 ANIMAL INVESTIGATION
202100378132 6-24 18:19 JTB W ON RAMP / HODGES BLVD 1050 TRAFFIC STOP
202100378121 6-24 18:13 SAN JOSE BLVD 38 TRAFFIC ASSIGNMENT
202100378114 6-24 18:13 3800 FRANKLIN ST 76 ASSIST OTHER AGENCY
202100378115 6-24 18:13 100 DRYSDALE ST 27 MENTALLY ILL PERSON
202100378109 6-24 18:12 5000 TIMUQUANA RD 63 DISPUTE
202100378105 6-24 18:12 14300 DENTON RD 63 DISPUTE
202100378110 6-24 18:10 7800 PORCH SWING LN 9T THEFT (TELESERVE)
202100378096 6-24 18:08 ATLANTIC BLVD / KINGS AVE 16 ROAD OBSTRUCTION
202100378103 6-24 18:08 3800 ALMEDA ST 63 DISPUTE
202100378100 6-24 18:08 1300 RUSHING ST 13 SUSPICIOUS PERSON
202100378021 6-24 18:07 7900 SOUTHSIDE BLVD 95 FRAUD/FORGED (CHECK, ID, RX)
202100378088 6-24 18:06 BEACH BLVD / GERONA DR W 63 DISPUTE
202100378101 6-24 18:05 STATE ST W / JULIA ST N 16 ROAD OBSTRUCTION
202100378095 6-24 18:00 NORWOOD AVE / 44TH ST W 96 ASSIST MOTORIST
202182012290 6-24 18:00 13700 ATLANTIC BLVD 1050 TRAFFIC STOP
202100378086 6-24 17:57 2500 ORCHARD ST 63 DISPUTE
202100378067 6-24 17:57 3100 HOLLOW TREE CT 95IDT IDENTITY THEFT TELESERVE
202100378051 6-24 17:56 MANDARIN RD / SAN JOSE BLVD 4 AUTO CRASH
202100378040 6-24 17:56 4800 LENOIR AVE 22 DOMESTIC
202100378050 6-24 17:56 10000 BELLE RIVE BLVD 4 AUTO CRASH
202100378042 6-24 17:56 HODGES BLVD / SUTTON PARK DR S 4 AUTO CRASH
202100378089 6-24 17:56 BEACH BLVD / PENMAN RD 1050 TRAFFIC STOP
202100378016 6-24 17:55 1300 RIVERPLACE DR 4 AUTO CRASH
202100378006 6-24 17:54 8300 VINING ST 19 ANIMAL INVESTIGATION
202100378070 6-24 17:54 UNION ST W / PEARL ST N 16 ROAD OBSTRUCTION
202100378087 6-24 17:53 FEATHERWOOD/HIDDEN COVE 1050 TRAFFIC STOP
202100377962 6-24 17:53 6900 FUEGUS DR 63 DISPUTE
202100378065 6-24 17:52 BAYMEADOWS CIR E / BAYMEADOWS RD 63 DISPUTE
202100378015 6-24 17:52 300 CARAVAN CIR 22 DOMESTIC
202100378085 6-24 17:51 13500 WATERWORKS ST 63 DISPUTE
202100378080 6-24 17:49 700 RUSHING ST 1066 CANCEL
202100378076 6-24 17:49 PARK ST / I95 S ON RAMP 76 ASSIST OTHER AGENCY
202100378049 6-24 17:48 3700 BULLS BAY HWY 4 AUTO CRASH
202100378030 6-24 17:48 14300 LYLE RD 22 DOMESTIC
202100378079 6-24 17:48 W I10EXIT S CHAF RP / CHAFFEE RD S 12 RECKLESS DRIVER
202100378073 6-24 17:47 1600 PRUDENTIAL DR 22 DOMESTIC
202100378000 6-24 17:47 31ST ST W / MONCRIEF RD 3 HIT AND RUN CRASH
202100378074 6-24 17:46 10500 LEM TURNER RD 3 HIT AND RUN CRASH
202100378062 6-24 17:44 12100 BEACH BLVD 63 DISPUTE
202100378058 6-24 17:43 PHILIPS HWY / UNIVERSITY BLVD W 1066 CANCEL
202100378009 6-24 17:43 45TH ST W / VERNON RD 3 HIT AND RUN CRASH
202100378055 6-24 17:41 4TH AVE / CAMPUS AVE 63 DISPUTE
202100378061 6-24 17:41 5000 FRENCH ST 1066 CANCEL
202100378018 6-24 17:40 4100 KATANGA DR N 95 FRAUD/FORGED (CHECK, ID, RX)
202100378045 6-24 17:39 GARY ST / SAN MARCO BLVD 13 SUSPICIOUS PERSON
202100378039 6-24 17:36 11000 OLD ST AUGUSTINE RD 73 DRUG INVESTIGATION
202100378053 6-24 17:35 4100 BEVERLY AVE 1050 TRAFFIC STOP
202100377998 6-24 17:31 9800 BAYMEADOWS RD 63 DISPUTE
202100378047 6-24 17:29 NIXON ST / CALVIN ST 12 RECKLESS DRIVER
202100378046 6-24 17:29 PHILIPS HWY / SOUTHGATE DR 1050 TRAFFIC STOP
202100378041 6-24 17:29 OLD ST AUGUSTINE RD / CROWN POINT RD 4 53 TRAFFIC CRASH PERSON INJURED
202100378044 6-24 17:28 DUTTON ISLAND RD W / MEALY LN 1050 TRAFFIC STOP
202100378038 6-24 17:28 NEW KINGS RD / DEKLE AVE 0 63 ARMED DISPUTE
202100377963 6-24 17:27 800 PORT WINE LN 22 DOMESTIC
202100377970 6-24 17:21 YOUNGERMAN CIR / BLANDING BLVD 56 JUVENILE COMPLAINT
202100377870 6-24 17:21 2000 LANE AVE N 9 THEFT
202100378003 6-24 17:20 1400 26TH ST W 22 DOMESTIC
202100378025 6-24 17:18 1600 L ENGLE ST 63 DISPUTE
202100378024 6-24 17:16 CHAMPLAIN RD / CARTIER CIR 57 PERSON CALLING FOR HELP
202100378027 6-24 17:16 SOUTEL DR / WILTON AVE 1050 TRAFFIC STOP
202100378026 6-24 17:16 11400 ATLANTIC BLVD 38 TRAFFIC ASSIGNMENT
202100377943 6-24 17:16 6000 MAGGIES CIR 10 VEHICLE THEFT
202100377990 6-24 17:15 3000 PARK ST 2288 DOMESTIC DISPUTE WITH/ASSAULT
202100377950 6-24 17:15 1600 GOLF FOREST DR 21C BURGLARY CONVEYANCE
202100378023 6-24 17:14 1500 DUNN AVE 4 AUTO CRASH
202100377975 6-24 17:13 1100 AIRPORT RD 56 JUVENILE COMPLAINT
202100377989 6-24 17:13 UNION ST E / LIBERTY ST N 4 AUTO CRASH
202100378012 6-24 17:13 500 BAY ST E 1066 CANCEL
202100378022 6-24 17:13 ARGYLE FOREST BLVD / RAMPART RD 4 AUTO CRASH
202100337853 6-24 17:13 8800 BEACH BLVD 3 HIT AND RUN CRASH
202100378014 6-24 17:10 900 MC DUFF AVE S 4 AUTO CRASH
202100378005 6-24 17:09 1200 FLORIDA AVE 22 DOMESTIC
202100377993 6-24 17:09 I295 N OFF RAMP / MONUMENT RD 16 ROAD OBSTRUCTION
202100377712 6-24 17:09 I295 S WBWY OFF RAMP / I95 S ON RAMP 16 ROAD OBSTRUCTION
202100377947 6-24 17:08 7500 ARLINGTON EXPY 73 DRUG INVESTIGATION
202100378010 6-24 17:07 SOUTEL DR / RIBAULT AVE 1050 TRAFFIC STOP
202100377887 6-24 17:06 6300 MORSE AVE 63 DISPUTE
202100377932 6-24 17:06 7500 POWERS AVE 63 DISPUTE
202100378002 6-24 17:06 7100 WENDY CIR 19 ANIMAL INVESTIGATION
202100377927 6-24 17:05 4300 SUNBEAM RD 63 DISPUTE
202100377997 6-24 17:04 7800 SOUTHSIDE BLVD 60 SUICIDE OR ATTEMPT
202100377999 6-24 17:04 GARY ST / SAN MARCO BLVD 1050 TRAFFIC STOP
202100377461 6-24 17:04 8600 BAYPINE RD 9 THEFT
202100377957 6-24 17:02 2800 UNIVERSITY BLVD S 3 HIT AND RUN CRASH
202182012289 6-24 17:02 100 OCEANGATE DR 9 THEFT
202100377995 6-24 17:02 1000 EDGEWOOD AVE S 12 RECKLESS DRIVER
202100377991 6-24 17:01 GREENLAND RD 38 TRAFFIC ASSIGNMENT
202100377954 6-24 17:00 NORMANDY BLVD / YELLOW WATER RD 13 SUSPICIOUS PERSON
202100377973 6-24 17:00 BEACH BLVD / HODGES BLVD 16 ROAD OBSTRUCTION
202100377937 6-24 17:00 8600 BAYMEADOWS RD E 22 DOMESTIC
202100377982 6-24 17:00 300 LAURINA ST 76 ASSIST OTHER AGENCY
202100377980 6-24 16:59 1100 KINGS RD 4 AUTO CRASH
202100377834 6-24 16:58 10800 PHILIPS HWY 63 DISPUTE
202100377865 6-24 16:57 600 CHELSEA ST 27 MENTALLY ILL PERSON
202100377983 6-24 16:57 JTB E OFF RAMP / SOUTHSIDE BLVD 1050 TRAFFIC STOP
202100377893 6-24 16:55 4800 ORTEGA FARMS BLVD 63 DISPUTE
202100377978 6-24 16:55 900 EDGEWOOD AVE S 12 RECKLESS DRIVER
202100377976 6-24 16:52 1600 ZOO PKWY 1050 TRAFFIC STOP
202100377968 6-24 16:50 3100 PARENTAL HOME RD 11 ABANDONED VEHICLE
202100377972 6-24 16:49 12700 ATLANTIC BLVD 9J THEFT JUST OCCURRED
202182012288 6-24 16:49 700 MAYPORT RD 13 SUSPICIOUS PERSON
202100377969 6-24 16:48 5600 MONCRIEF RD 4 53 TRAFFIC CRASH PERSON INJURED
202100377967 6-24 16:48 11900 I10 EXPY E 4 AUTO CRASH
202100377955 6-24 16:48 900 DUNN AVE 95ID IDENTITY THEFT
202100377964 6-24 16:46 MARTIN LUTHER KING JR PKWY / MONCRIEF RD 4 AUTO CRASH
202100377960 6-24 16:46 100 48TH ST W 0 63 ARMED DISPUTE
202100377886 6-24 16:45 6100 ARLINGTON EXPY 63 DISPUTE
202100377959 6-24 16:44 5700 JACKS RD 76 ASSIST OTHER AGENCY
202100377965 6-24 16:44 12700 BENTWATER DR 12 RECKLESS DRIVER
202100377914 6-24 16:42 1100 LAKE SHORE BLVD 63 DISPUTE
202100377956 6-24 16:42 1000 EDGEWOOD AVE S 12 RECKLESS DRIVER
202100377953 6-24 16:42 ATLANTIC BLVD SERVICE RD / KERNAN BLVD N 68 CON GAME/FLIM FLAM
202100377952 6-24 16:42 9100 ATLANTIC BLVD 22 DOMESTIC
202100377944 6-24 16:41 5600 NORMANDY BLVD 63 DISPUTE
202100377779 6-24 16:40 5100 INDIAN LAKES CT 6388 DISPUTE WITH ASSAULT
202100377906 6-24 16:40 NEW BERLIN RD / YELLOW BLUFF RD 63 DISPUTE
202100377931 6-24 16:39 3500 UNIVERSITY BLVD W 63 DISPUTE
202100377933 6-24 16:39 13100 ATLANTIC BLVD 95 FRAUD/FORGED (CHECK, ID, RX)
202100377949 6-24 16:39 ZOO PKWY / EASTPORT RD 1050 TRAFFIC STOP
202100377948 6-24 16:39 8800 BAYMEADOWS RD 13 SUSPICIOUS PERSON
202100377935 6-24 16:38 8500 BAYMEADOWS RD 95ID IDENTITY THEFT
202100377816 6-24 16:38 6700 SUNSET DR 63 DISPUTE
202100377941 6-24 16:36 10900 BISCAYNE BLVD 38 TRAFFIC ASSIGNMENT
202100377898 6-24 16:35 3600 BLANDING BLVD 22 DOMESTIC
202100377938 6-24 16:35 ARLINGTON RD N / ARLINGTON XY SERVICE RD 1050 TRAFFIC STOP
202100377936 6-24 16:34 1000 EDGEWOOD AVE S 38 TRAFFIC ASSIGNMENT
202100377791 6-24 16:32 300 LANE AVE S 13 SUSPICIOUS PERSON
202100377925 6-24 16:32 1600 BARTRAM RD 76 ASSIST OTHER AGENCY
202100377897 6-24 16:31 LENOX AVE / MAMIE RD 9J THEFT JUST OCCURRED
202100377917 6-24 16:31 6300 BEACH BLVD 63 DISPUTE
202100377913 6-24 16:31 48TH ST W / MAIN ST N 6388 DISPUTE WITH ASSAULT
202100377923 6-24 16:30 SAN JOSE BLVD / CROWN POINT RD 1050 TRAFFIC STOP
202100377919 6-24 16:29 11100 SAN JOSE BLVD 4 AUTO CRASH
202100377874 6-24 16:29 5200 BOILARD DR 22 DOMESTIC
202100377869 6-24 16:29 9700 SPOTTSWOOD RD 63 DISPUTE
202100377894 6-24 16:28 2600 ECTOR RD N 76 ASSIST OTHER AGENCY
202100377916 6-24 16:26 GOLFAIR BLVD / MONCRIEF RD 4 AUTO CRASH
202100377915 6-24 16:26 JTB E OFF RAMP / SOUTHSIDE BLVD 1050 TRAFFIC STOP
202100377325 6-24 16:26 I95 N OFF RAMP / MARTIN LUTHER KING JR PKWY 16 ROAD OBSTRUCTION
202100377911 6-24 16:25 11200 BEACH BLVD 76 ASSIST OTHER AGENCY
202100377912 6-24 16:25 FT CAROLINE RD / MCCORMICK RD 16 ROAD OBSTRUCTION
202100377910 6-24 16:24 I295 N OFF RAMP / NORMANDY BLVD 1050 TRAFFIC STOP
202100377909 6-24 16:24 LEM TURNER RD / LEONID RD 1050 TRAFFIC STOP
202100377892 6-24 16:24 7600 103RD ST 63 DISPUTE
202100377904 6-24 16:22 ZOO/NEW BER 1050 TRAFFIC STOP
202100377903 6-24 16:22 I295 S OFF RAMP / MONUMENT RD 4 AUTO CRASH
202100377868 6-24 16:22 2000 HYDE PARK RD 63 DISPUTE
202100377841 6-24 16:21 200 NEWS ST 19 ANIMAL INVESTIGATION
202100377823 6-24 16:21 3100 EMERSON ST 63 DISPUTE
202100377902 6-24 16:20 700 CASSAT AVE 12 RECKLESS DRIVER
202100377851 6-24 16:20 1700 4TH ST W 22 DOMESTIC
202100377900 6-24 16:20 COMMONWEALTH AVE / EDGEWOOD AVE N 1050 TRAFFIC STOP
202100377872 6-24 16:19 700 CARLTON ST 21C BURGLARY CONVEYANCE
202100377873 6-24 16:18 5200 AMAZON AVE 76 ASSIST OTHER AGENCY
202100377888 6-24 16:17 6100 VIRGIL LN 88P ASSAULT IN PROGRESS
202100377890 6-24 16:17 MARSH ST / BAY ST E 76 ASSIST OTHER AGENCY
202100377889 6-24 16:17 MONCRIEF RD / 45TH ST W 1050 TRAFFIC STOP
202100377883 6-24 16:15 2700 CAVENDER CT 60 SUICIDE OR ATTEMPT
202100377884 6-24 16:15 9400 SAN JOSE BLVD 60 SUICIDE OR ATTEMPT
202100377881 6-24 16:15 6800 NORMANDY BLVD 3 HIT AND RUN CRASH
202100377885 6-24 16:14 LEM TURNER RD / BASSETT RD 1050 TRAFFIC STOP
202100377822 6-24 16:13 3500 BLANDING BLVD 9J THEFT JUST OCCURRED
202100377882 6-24 16:13 PULASKI RD 38 TRAFFIC ASSIGNMENT
202100377880 6-24 16:13 ARLINGTON/ARLINGTON SEV 1050 TRAFFIC STOP
202100377879 6-24 16:13 9500 NEAL DR 60 SUICIDE OR ATTEMPT
202100377845 6-24 16:12 11200 BEACH BLVD 63 DISPUTE
202100377807 6-24 16:11 100 TROUT RIVER DR 9T THEFT (TELESERVE)
202100377875 6-24 16:11 3700 BLANDING BLVD 79 OBSCENE / THREAT CALL OR LETTER
202100377866 6-24 16:11 3200 SOUTHSIDE BLVD 4 AUTO CRASH
202100377871 6-24 16:09 11300 SAN JOSE BLVD 1066 CANCEL
202100377863 6-24 16:07 4400 MONCRIEF RD 4 AUTO CRASH
202100377861 6-24 16:06 NORMANDY BLVD / MEMORIAL PARK RD 4 AUTO CRASH
202100377858 6-24 16:04 5100 QUAN DR 63 DISPUTE
202100377856 6-24 16:02 10100 103RD ST 76 ASSIST OTHER AGENCY
202100377790 6-24 16:01 9800 BEACH BLVD 2 63 DISPUTE IMPAIRED/INTOXICATED
202100377855 6-24 16:01 EDGEWOOD AVE W / ORLANDO AVE 1050 TRAFFIC STOP
202100377848 6-24 16:01 DUVAL RD / ARMSDALE RD N 4 AUTO CRASH
202100377842 6-24 16:00 9800 CROSSHILL BLVD 63 DISPUTE
202100377850 6-24 16:00 9600 BELDA WAY 76 ASSIST OTHER AGENCY
202100377849 6-24 15:57 BAYMEADOWS/OLD KINGS 16 ROAD OBSTRUCTION
202100377831 6-24 15:57 WHISPERING WOODS BLVD / ALDEN RD 12 RECKLESS DRIVER
202100377847 6-24 15:57 5300 DODGE RD 9 THEFT
202100377843 6-24 15:57 1100 SARATOGA BLVD 10 VEHICLE THEFT
202100377778 6-24 15:56 1000 BERTHA ST 95IDT IDENTITY THEFT TELESERVE
202100377794 6-24 15:54 7300 NORTH SHORE DR 11 ABANDONED VEHICLE
202100377837 6-24 15:54 1000 TALBOT AVE 11 ABANDONED VEHICLE
202100377839 6-24 15:53 400 PARK ST 1050 TRAFFIC STOP
202100377808 6-24 15:53 10500 DEERWOOD PARK BLVD 22 DOMESTIC
202100377833 6-24 15:51 2900 OLD ORCHARD RD 54 ILLEGALLY PARKED CAR
202100377830 6-24 15:49 DUVAL ST E / TALLEYRAND AVE 87 DAMAGED PROPERTY
202100377825 6-24 15:49 5800 SAN JOSE BLVD 2 IMPAIRED/INTOXICATED
202100377826 6-24 15:48 10600 CASA GRANDE DR 95 FRAUD/FORGED (CHECK, ID, RX)
202100377827 6-24 15:47 5900 UNIVERSITY BLVD W 4 AUTO CRASH
202100377795 6-24 15:45 8100 HOLLYRIDGE RD 22 DOMESTIC
202100377821 6-24 15:44 FOREST ST / MAGNOLIA ST 1050 TRAFFIC STOP
202100377820 6-24 15:44 GOLFAIR BLVD / MYRTLE AVE N 1050 TRAFFIC STOP
202100377715 6-24 15:44 4200 PHILIPS HWY 27 MENTALLY ILL PERSON
202100377818 6-24 15:43 I295/PRIT 16 ROAD OBSTRUCTION
202100377814 6-24 15:42 5100 SEABOARD AVE 29 WIRE DOWN
202100377704 6-24 15:42 3100 EMERSON ST 63 DISPUTE
202100377798 6-24 15:41 3900 NOTTER AVE 63 DISPUTE
202100377792 6-24 15:41 1000 31ST ST W 2 22 DOMESTIC DISTURBANCE
202100377812 6-24 15:40 1400 LISA ST 4 AUTO CRASH
202100377810 6-24 15:39 6100 LUCERNE AVE 54 ILLEGALLY PARKED CAR
202100377803 6-24 15:36 700 MARKET ST N 9 THEFT
202100377799 6-24 15:36 3500 DELLWOOD AVE 63 DISPUTE
202100377773 6-24 15:36 7000 DEER LODGE CIR 63 DISPUTE
202100377802 6-24 15:35 I295 N OFF RAMP / OLD ST AUGUSTINE RD 1050 TRAFFIC STOP
202100377747 6-24 15:33 8700 BAYMEADOWS RD 63 DISPUTE
202100377796 6-24 15:32 7200 NORMANDY BLVD 1050 TRAFFIC STOP
202100377682 6-24 15:31 5300 118TH ST 88 ASSAULT
202100377788 6-24 15:29 4500 ROYAL AVE 21R BURGLARY RESIDENCE
202192110892 6-24 15:29 1700 LANSDOWNE DR 4 AUTO CRASH
202100377787 6-24 15:28 4600 FLYNN AVE 63 DISPUTE
202100377783 6-24 15:28 100 PECAN PARK RD 21C BURGLARY CONVEYANCE
202100377775 6-24 15:27 SOUTHSIDE BLVD / DEERWOOD PARK BLVD 4 AUTO CRASH
202100377781 6-24 15:26 1200 CLOCK ST 2288 DOMESTIC DISPUTE WITH/ASSAULT
202100377731 6-24 15:24 800 WATERBIRD LN 63 DISPUTE
202100377777 6-24 15:24 15000 YELLOW BLUFF RD 1050 TRAFFIC STOP
202100377772 6-24 15:24 I295 N OFF RAMP / NEW KINGS RD 0 13 ARMED SUSPICIOUS PERSON
202100377320 6-24 15:22 I95 N OFF RAMP / MONROE ST W 16 ROAD OBSTRUCTION
202100377736 6-24 15:22 5100 NORWOOD AVE 63 DISPUTE
202100377714 6-24 15:21 14700 BARTRAM SPRINGS PKWY 91 TRAFFIC LIGHT/RR CROSSING MALFUNCTION
202100377769 6-24 15:20 700 LIBERTY ST N 73 DRUG INVESTIGATION
202100377768 6-24 15:20 700 LIBERTY ST N 73 DRUG INVESTIGATION
202100377767 6-24 15:20 700 LIBERTY ST N 73 DRUG INVESTIGATION
202100377766 6-24 15:20 700 LIBERTY ST N 73 DRUG INVESTIGATION
202100377765 6-24 15:20 500 STOCKTON ST 10 VEHICLE THEFT
202100377764 6-24 15:19 1000 BACALL RD 9T THEFT (TELESERVE)
202100377572 6-24 15:19 I10 E OFF RAMP / LANE AVE S 4 AUTO CRASH
202100377761 6-24 15:19 4500 GLENDAS MEADOW DR 14C VANDALISM CONVEYANCE
202100377751 6-24 15:18 12200 SAN JOSE BLVD 9T THEFT (TELESERVE)
202100377739 6-24 15:18 5000 DONNYBROOK AVE 19 ANIMAL INVESTIGATION
202100377700 6-24 15:17 11300 BEACH BLVD 1 IMPAIRED/DRUNK DRIVER
202100377743 6-24 15:16 6300 SUNDOWN DR 64 NOISE COMPLAINT
202100377753 6-24 15:15 7600 WEXFORD CLUB DR E 13 SUSPICIOUS PERSON
202100377718 6-24 15:15 1000 AIRPORT RD 9 THEFT
202100377744 6-24 15:14 1700 MANDARIN ESTATES DR 95ID IDENTITY THEFT
202100377719 6-24 15:14 5400 TIMUQUANA RD 6388 DISPUTE WITH ASSAULT
202100377758 6-24 15:13 11000 ALTA DR 38 TRAFFIC ASSIGNMENT
202100377729 6-24 15:12 100 41ST ST W 9 THEFT
202100377754 6-24 15:10 1100 9TH ST E 22 DOMESTIC
202100377755 6-24 15:08 KINGS RD / MARTHA ST 1050 TRAFFIC STOP
202100377627 6-24 15:08 100 FIELDS AVE 63 DISPUTE
202100377749 6-24 15:07 WILSON BLVD / FIRESTONE RD 1050 TRAFFIC STOP
202100377515 6-24 15:07 7300 PENROSE ST 9T THEFT (TELESERVE)
202100377746 6-24 15:06 1300 21ST ST W 22 DOMESTIC
202100377687 6-24 15:06 8800 BEACH BLVD 9 THEFT
202100377745 6-24 15:04 103RD ST / BLANDING BLVD 12 RECKLESS DRIVER
202100377720 6-24 15:03 1100 LANE AVE S 22 DOMESTIC
202100377738 6-24 15:03 2000 NAVAHO AVE 6388 DISPUTE WITH ASSAULT
202100377741 6-24 15:00 NEW KINGS RD / DARROW ST 1050 TRAFFIC STOP
202100377705 6-24 14:58 1000 EDGEWOOD AVE S 63 DISPUTE
202100377735 6-24 14:58 800 S LANE AVE 9 THEFT
202100377733 6-24 14:57 5000 BUFFALO AVE 9 THEFT
202100377728 6-24 14:56 4200 BLANDING BLVD 13 SUSPICIOUS PERSON
202100377724 6-24 14:56 RICKER RD / 103RD ST 76 ASSIST OTHER AGENCY
202100377701 6-24 14:55 1600 20TH ST W 21C BURGLARY CONVEYANCE
202100377661 6-24 14:54 100 CENTURY ST 63 DISPUTE
202100377646 6-24 14:54 1700 RUTLEDGE AVE 21R BURGLARY RESIDENCE
202100377708 6-24 14:54 1800 28TH ST W 22 DOMESTIC
202100377654 6-24 14:53 12500 STERLING RUN CT 63 DISPUTE
202100377326 6-24 14:52 I95 N OFF RAMP / KINGS RD 4 53 TRAFFIC CRASH PERSON INJURED
202100377721 6-24 14:52 I295 S OFF RAMP / 103RD ST 1050 TRAFFIC STOP
202100377707 6-24 14:51 6600 HIGHWAY AVE 63 DISPUTE
202100377713 6-24 14:51 10400 BIGTREE CIR E 22 DOMESTIC
202100377691 6-24 14:51 5600 NORMANDY BLVD 63 DISPUTE
202100377683 6-24 14:48 1700 DIBBLE CIR E 13 SUSPICIOUS PERSON
202100377670 6-24 14:44 1000 FULLER LN 95IDT IDENTITY THEFT TELESERVE
202100377703 6-24 14:41 9100 HOGAN RD 45 GAS LEAK
202100377564 6-24 14:39 100 FULLER WARREN BRG S 16 ROAD OBSTRUCTION
202100377699 6-24 14:39 1500 MONUMENT RD 76 ASSIST OTHER AGENCY
202100377629 6-24 14:37 1600 BROOK FOREST DR 22 DOMESTIC
202182012285 6-24 14:36 200 ROYAL PALMS DR 13 SUSPICIOUS PERSON
202100377693 6-24 14:34 I295 N OFF RAMP / BAYMEADOWS RD 1050 TRAFFIC STOP
202100377623 6-24 14:32 EDGEWOOD AVE N / EDGEWOOD DR 4 AUTO CRASH
202100377679 6-24 14:32 EDWARDS CREEK RD / TIKI LN 16 ROAD OBSTRUCTION
202100377688 6-24 14:31 2800 COLLEGE ST 3 HIT AND RUN CRASH
202100377522 6-24 14:31 1900 PAINE AVE 63 DISPUTE
202100377664 6-24 14:31 3400 SOUTHSIDE BLVD 54 ILLEGALLY PARKED CAR
202100377685 6-24 14:30 1800 4TH ST W 12 RECKLESS DRIVER
202100377684 6-24 14:30 3600 UNIVERSITY BLVD S 27 MENTALLY ILL PERSON
202182012284 6-24 14:29 800 SEMINOLE RD 19 ANIMAL INVESTIGATION
202100377681 6-24 14:29 9100 PHILIPS HWY 38 TRAFFIC ASSIGNMENT
202100377539 6-24 14:28 3000 PARENTAL HOME RD 27 MENTALLY ILL PERSON
202100377669 6-24 14:26 400 6TH ST E 22 DOMESTIC
202100377676 6-24 14:26 NEW KINGS/CLIFFORD 1050 TRAFFIC STOP
202100377675 6-24 14:25 I295 N OFF RAMP / PHILIPS HWY 38 TRAFFIC ASSIGNMENT
202100377673 6-24 14:25 5800 TROUT RIVER BLVD 1050 TRAFFIC STOP
202100377667 6-24 14:24 13400 GRAN BAY PKWY 76 ASSIST OTHER AGENCY
202100377671 6-24 14:24 7200 ZONA AVE 21R BURGLARY RESIDENCE
202100377383 6-24 14:23 3100 UNIVERSITY BLVD N 6388 DISPUTE WITH ASSAULT
202100377665 6-24 14:22 9500 BENT OAK CT 16 ROAD OBSTRUCTION
202100377651 6-24 14:22 PICKETTVILLE RD / HORSESHOE DR E 29 WIRE DOWN
202100377653 6-24 14:22 600 8TH ST W 76 ASSIST OTHER AGENCY
202100377611 6-24 14:21 4800 PORTSMOUTH AVE 0 13 ARMED SUSPICIOUS PERSON
202100377609 6-24 14:20 2900 KELSO CIR E 63 DISPUTE
202100377658 6-24 14:20 5800 TROUT RIVER 1050 TRAFFIC STOP
202100377657 6-24 14:19 9400 NORMANDY BLVD 13 SUSPICIOUS PERSON
202100377555 6-24 14:17 900 PHILLIPS ST 22 DOMESTIC
202100377649 6-24 14:16 4400 ROOSEVELT BLVD 11 ABANDONED VEHICLE
202100377595 6-24 14:15 1300 ST JOHNS BLUFF RD N 63 DISPUTE
202100377642 6-24 14:15 6000 TERRY RD 3 HIT AND RUN CRASH
202100377622 6-24 14:14 4300 SALISBURY RD 63 DISPUTE
202100377640 6-24 14:13 MONCRIEF RD / GOLFAIR BLVD 33 DISCHARGING OF FIREARM
202100377645 6-24 14:13 6700 103RD ST 4 AUTO CRASH
202100377619 6-24 14:13 800 BERT RD 95IDT IDENTITY THEFT TELESERVE
202100377644 6-24 14:13 500 BAY ST E 86 LOST PROPERTY
202100377638 6-24 14:11 PHILIPS HWY / JTB 76 ASSIST OTHER AGENCY
202100377637 6-24 14:10 5800 TROUT RIVER BLVD 1050 TRAFFIC STOP
202100377633 6-24 14:10 7900 BAYMEADOWS CIR E 0 63 ARMED DISPUTE
202100377635 6-24 14:08 9900 SOUTHSIDE BLVD 1050 TRAFFIC STOP
202100377573 6-24 14:07 10500 COLD STORAGE RD 1066 CANCEL
202100377571 6-24 14:04 6900 MORSE AVE 22 DOMESTIC
202100377566 6-24 14:04 3000 JONES RD 79T OBSCENE / THREAT CALL OR LETTER TELESERVE
202100377624 6-24 14:03 600 SOUTHSIDE CONNECTOR BLVD 38 TRAFFIC ASSIGNMENT
202100377608 6-24 14:02 13400 GRAN BAY PKWY 1066 CANCEL
202100377426 6-24 14:02 PARSLEY LN / COLLINS RD 19 ANIMAL INVESTIGATION
202100377510 6-24 14:02 2800 SUNI PINES BLVD 0 63 ARMED DISPUTE
202100377590 6-24 14:01 9100 10TH AVE 27 MENTALLY ILL PERSON
202100377615 6-24 14:00 900 EDGEWOOD AVE N 9 THEFT